COSMOS 1743

Last updated on Sat Apr 13 2024 01:02:09 GMT+0100 (British Summer Time)

1 16719U 86034A 24103.35204629 .00009372 00000+0 35900-3 0 9996 2 16719 82.5472 63.4596 0007289 262.7140 97.3270 15.26370891 73094
UTC large
Height (km)
Speed (km/s)
/
Latitude / Longitude
Inclination (degrees)
Orbital Period (minutes)
Azimuth
Elevation
Range (km)
Doppler Factor

Next 0 passes for location: London (51.5072 / 0.1276)

Sorry there are no passes over London.